Вернуться в каталог

SDA_1670

АктивенВоенныеPO
NORAD 65980·PAYLOAD·🇺🇸 United States

Запущен Oct 15, 2025 с Vandenberg Space Force Base

Loading…

Ближайшие Пролёты (ближайшие 24 часа)

TLE

СвежийSource: Space-Track

Эпоха: Sep 14, 2026, 15:04 UTC

1 65980U 25230G   26257.62829918  .00000046  00000-0  33742-4 0  9990
2 65980  81.2987 130.0759 0000772  56.1871 303.9356 13.78094210 46109

Отслеживайте SDA_1670 в реальном времени с AllMySat

Download on the App Store